Time,TemperatureF,DewpointF,PressureIn,WindDirection,WindDirectionDegrees,WindSpeedMPH,WindSpeedGustMPH,Humidity,HourlyPrecipIn,Conditions,Clouds,dailyrainin,SoftwareType,DateUTC
2013-01-30 00:03:00,31.0,28.7,29.43,NW,307,11.0,14.0,91,0.00,,---,0.00,VWS V14.01,2013-01-30 06:03:00,
2013-01-30 00:08:00,31.0,28.7,29.45,WNW,284,6.0,14.0,91,0.00,,---,0.00,VWS V14.01,2013-01-30 06:08:00,
2013-01-30 00:13:00,31.0,28.7,29.45,NW,313,14.0,14.0,91,0.00,,---,0.00,VWS V14.01,2013-01-30 06:13:00,
2013-01-30 00:18:00,30.9,28.6,29.43,NW,306,14.0,15.0,91,0.00,,---,0.00,VWS V14.01,2013-01-30 06:18:00,
2013-01-30 00:23:00,30.7,28.4,29.42,NW,307,12.0,20.0,91,0.00,,---,0.00,VWS V14.01,2013-01-30 06:23:00,
2013-01-30 00:28:00,30.6,28.3,29.42,WNW,300,10.0,20.0,91,0.00,,---,0.00,VWS V14.01,2013-01-30 06:28:00,
2013-01-30 00:33:00,30.4,28.1,29.40,WNW,302,7.0,21.0,91,0.00,,---,0.00,VWS V14.01,2013-01-30 06:33:00,
2013-01-30 00:38:00,30.3,28.3,29.40,NW,316,9.0,21.0,92,0.00,,---,0.00,VWS V14.01,2013-01-30 06:38:00,
2013-01-30 00:43:00,30.1,28.1,29.39,NW,316,17.0,22.0,92,0.00,,---,0.00,VWS V14.01,2013-01-30 06:43:00,
2013-01-30 00:48:00,30.0,28.0,29.38,NW,312,6.0,22.0,92,0.00,,---,0.00,VWS V14.01,2013-01-30 06:48:00,
2013-01-30 00:53:00,29.9,27.9,29.38,NNW,328,17.0,22.0,92,0.00,,---,0.00,VWS V14.01,2013-01-30 06:53:00,
2013-01-30 00:58:00,29.8,27.8,29.37,WNW,294,6.0,22.0,92,0.00,,---,0.00,VWS V14.01,2013-01-30 06:58:00,
2013-01-30 01:03:00,29.7,27.7,29.36,WNW,301,14.0,17.0,92,0.00,,---,0.00,VWS V14.01,2013-01-30 07:03:00,
2013-01-30 01:08:00,29.5,27.2,29.37,NW,310,16.0,20.0,91,0.00,,---,0.00,VWS V14.01,2013-01-30 07:08:00,
2013-01-30 01:13:00,29.3,27.0,29.38,WNW,293,9.0,22.0,91,0.00,,---,0.00,VWS V14.01,2013-01-30 07:13:00,
2013-01-30 01:18:00,29.2,26.9,29.37,NW,325,16.0,24.0,91,0.00,,---,0.00,VWS V14.01,2013-01-30 07:18:00,
2013-01-30 01:23:00,29.1,26.8,29.37,NW,311,11.0,24.0,91,0.00,,---,0.00,VWS V14.01,2013-01-30 07:23:00,
2013-01-30 01:28:00,29.0,26.7,29.36,NW,312,5.0,24.0,91,0.00,,---,0.00,VWS V14.01,2013-01-30 07:28:00,
2013-01-30 01:33:00,28.9,26.6,29.36,WNW,298,15.0,18.0,91,0.00,,---,0.00,VWS V14.01,2013-01-30 07:33:00,
2013-01-30 01:38:00,28.9,26.6,29.36,North,5,6.0,19.0,91,0.00,,---,0.00,VWS V14.01,2013-01-30 07:38:00,
2013-01-30 01:43:00,28.9,26.6,29.36,NW,313,11.0,19.0,91,0.00,,---,0.00,VWS V14.01,2013-01-30 07:43:00,
2013-01-30 01:48:00,28.9,26.6,29.36,West,280,6.0,19.0,91,0.00,,---,0.00,VWS V14.01,2013-01-30 07:48:00,
2013-01-30 01:53:00,28.9,26.6,29.36,NW,311,10.0,19.0,91,0.00,,---,0.00,VWS V14.01,2013-01-30 07:53:00,
2013-01-30 01:58:00,28.9,26.6,29.37,WNW,300,3.0,19.0,91,0.00,,---,0.00,VWS V14.01,2013-01-30 07:58:00,
2013-01-30 02:03:00,28.9,26.6,29.36,NW,304,12.0,12.0,91,0.00,,---,0.00,VWS V14.01,2013-01-30 08:03:00,
2013-01-30 02:08:00,29.0,26.7,29.36,NW,317,10.0,12.0,91,0.00,,---,0.00,VWS V14.01,2013-01-30 08:08:00,
2013-01-30 02:13:00,29.0,26.7,29.36,NW,309,6.0,12.0,91,0.00,,---,0.00,VWS V14.01,2013-01-30 08:13:00,
2013-01-30 02:18:00,29.0,26.7,29.37,WNW,285,6.0,12.0,91,0.00,,---,0.00,VWS V14.01,2013-01-30 08:18:00,
2013-01-30 02:23:00,28.9,26.3,29.37,WNW,296,11.0,20.0,90,0.00,,---,0.00,VWS V14.01,2013-01-30 08:23:00,
2013-01-30 02:28:00,28.8,26.0,29.37,NW,311,16.0,20.0,89,0.00,,---,0.00,VWS V14.01,2013-01-30 08:28:00,
2013-01-30 02:33:00,28.7,25.6,29.36,WNW,296,15.0,15.0,88,0.00,,---,0.00,VWS V14.01,2013-01-30 08:33:00,
2013-01-30 02:38:00,28.7,25.6,29.36,NNW,340,9.0,15.0,88,0.00,,---,0.00,VWS V14.01,2013-01-30 08:38:00,
2013-01-30 02:43:00,28.5,25.1,29.35,NW,323,9.0,19.0,87,0.00,,---,0.00,VWS V14.01,2013-01-30 08:43:00,
2013-01-30 02:48:00,28.4,24.5,29.36,NW,304,10.0,19.0,85,0.00,,---,0.00,VWS V14.01,2013-01-30 08:48:00,
2013-01-30 02:53:00,28.3,24.4,29.36,NW,304,14.0,19.0,85,0.00,,---,0.00,VWS V14.01,2013-01-30 08:53:00,
2013-01-30 02:58:00,28.3,24.4,29.37,WNW,296,14.0,19.0,85,0.00,,---,0.00,VWS V14.01,2013-01-30 08:58:00,
2013-01-30 03:03:00,28.2,24.3,29.37,WNW,302,10.0,17.0,85,0.00,,---,0.00,VWS V14.01,2013-01-30 09:03:00,
2013-01-30 03:08:00,28.2,24.0,29.37,WNW,294,6.0,22.0,84,0.00,,---,0.00,VWS V14.01,2013-01-30 09:08:00,
2013-01-30 03:13:00,28.1,23.9,29.37,WNW,302,11.0,22.0,84,0.00,,---,0.00,VWS V14.01,2013-01-30 09:13:00,
2013-01-30 03:18:00,28.1,23.9,29.37,WNW,303,14.0,22.0,84,0.00,,---,0.00,VWS V14.01,2013-01-30 09:18:00,
2013-01-30 03:23:00,28.0,23.5,29.38,NW,317,18.0,22.0,83,0.00,,---,0.00,VWS V14.01,2013-01-30 09:23:00,
2013-01-30 03:28:00,28.0,23.5,29.38,WNW,298,13.0,22.0,83,0.00,,---,0.00,VWS V14.01,2013-01-30 09:28:00,
2013-01-30 03:33:00,27.9,23.1,29.38,WNW,292,6.0,15.0,82,0.00,,---,0.00,VWS V14.01,2013-01-30 09:33:00,
2013-01-30 03:38:00,27.9,23.1,29.37,NNW,348,10.0,15.0,82,0.00,,---,0.00,VWS V14.01,2013-01-30 09:38:00,
2013-01-30 03:43:00,27.8,23.3,29.37,NW,313,12.0,15.0,83,0.00,,---,0.00,VWS V14.01,2013-01-30 09:43:00,
2013-01-30 03:48:00,27.8,23.3,29.38,NNW,342,10.0,17.0,83,0.00,,---,0.00,VWS V14.01,2013-01-30 09:48:00,
2013-01-30 03:53:00,27.8,23.0,29.38,NW,313,6.0,17.0,82,0.00,,---,0.00,VWS V14.01,2013-01-30 09:53:00,
2013-01-30 03:58:00,27.7,22.9,29.38,NW,309,9.0,17.0,82,0.00,,---,0.00,VWS V14.01,2013-01-30 09:58:00,
2013-01-30 04:03:00,27.7,22.9,29.38,NNW,336,9.0,12.0,82,0.00,,---,0.00,VWS V14.01,2013-01-30 10:03:00,
2013-01-30 04:08:00,27.7,22.9,29.37,NW,306,13.0,15.0,82,0.00,,---,0.00,VWS V14.01,2013-01-30 10:08:00,
2013-01-30 04:13:00,27.6,22.8,29.36,WNW,291,12.0,16.0,82,0.00,,---,0.00,VWS V14.01,2013-01-30 10:13:00,
2013-01-30 04:18:00,27.6,22.8,29.36,WNW,290,9.0,18.0,82,0.00,,---,0.00,VWS V14.01,2013-01-30 10:18:00,
2013-01-30 04:23:00,27.5,22.7,29.36,WNW,302,7.0,18.0,82,0.00,,---,0.00,VWS V14.01,2013-01-30 10:23:00,
2013-01-30 04:28:00,27.5,22.7,29.36,WNW,302,4.0,18.0,82,0.00,,---,0.00,VWS V14.01,2013-01-30 10:28:00,
2013-01-30 04:33:00,27.4,22.6,29.37,WNW,303,5.0,12.0,82,0.00,,---,0.00,VWS V14.01,2013-01-30 10:33:00,
2013-01-30 04:38:00,27.4,22.6,29.37,NW,324,7.0,14.0,82,0.00,,---,0.00,VWS V14.01,2013-01-30 10:38:00,
2013-01-30 04:43:00,27.4,22.9,29.37,WNW,301,12.0,15.0,83,0.00,,---,0.00,VWS V14.01,2013-01-30 10:43:00,
2013-01-30 04:48:00,27.3,22.8,29.37,WNW,288,6.0,15.0,83,0.00,,---,0.00,VWS V14.01,2013-01-30 10:48:00,
2013-01-30 04:53:00,27.2,22.7,29.38,NW,320,16.0,18.0,83,0.00,,---,0.00,VWS V14.01,2013-01-30 10:53:00,
2013-01-30 04:58:00,27.2,22.7,29.37,NW,314,13.0,18.0,83,0.00,,---,0.00,VWS V14.01,2013-01-30 10:58:00,
2013-01-30 05:03:00,27.1,22.6,29.36,WNW,297,11.0,17.0,83,0.00,,---,0.00,VWS V14.01,2013-01-30 11:03:00,
2013-01-30 05:08:00,27.0,22.8,29.35,WNW,296,10.0,17.0,84,0.00,,---,0.00,VWS V14.01,2013-01-30 11:08:00,
2013-01-30 05:13:00,27.0,22.8,29.36,NNW,332,15.0,20.0,84,0.00,,---,0.00,VWS V14.01,2013-01-30 11:13:00,
2013-01-30 05:17:00,26.9,22.7,29.35,NW,306,11.0,20.0,84,0.00,,---,0.00,VWS V14.01,2013-01-30 11:17:00,
2013-01-30 05:22:00,26.9,22.7,29.34,WNW,299,12.0,20.0,84,0.00,,---,0.00,VWS V14.01,2013-01-30 11:22:00,
2013-01-30 05:27:00,26.7,22.8,29.33,NW,307,11.0,20.0,85,0.00,,---,0.00,VWS V14.01,2013-01-30 11:27:00,
2013-01-30 05:32:00,26.6,22.7,29.32,WNW,291,10.0,24.0,85,0.00,,---,0.00,VWS V14.01,2013-01-30 11:32:00,
2013-01-30 05:37:00,26.6,24.6,29.31,NW,325,21.0,24.0,92,0.00,,---,0.00,VWS V14.01,2013-01-30 11:37:00,
2013-01-30 05:42:00,26.5,23.2,29.32,WNW,297,11.0,24.0,87,0.00,,---,0.00,VWS V14.01,2013-01-30 11:42:00,
2013-01-30 05:47:00,26.2,23.1,29.33,WNW,288,4.0,24.0,88,0.00,,---,0.00,VWS V14.01,2013-01-30 11:47:00,
2013-01-30 05:52:00,26.0,23.2,29.32,NW,309,10.0,24.0,89,0.00,,---,0.00,VWS V14.01,2013-01-30 11:52:00,
2013-01-30 05:57:00,25.7,23.4,29.33,WNW,301,12.0,24.0,91,0.00,,---,0.00,VWS V14.01,2013-01-30 11:57:00,
2013-01-30 06:02:00,25.6,23.3,29.33,WNW,302,12.0,12.0,91,0.00,,---,0.00,VWS V14.01,2013-01-30 12:02:00,
2013-01-30 06:07:00,25.5,23.5,29.33,WNW,299,16.0,19.0,92,0.00,,---,0.00,VWS V14.01,2013-01-30 12:07:00,
2013-01-30 06:12:00,25.4,23.4,29.33,WNW,294,5.0,19.0,92,0.00,,---,0.00,VWS V14.01,2013-01-30 12:12:00,
2013-01-30 06:17:00,25.3,23.6,29.33,NW,306,10.0,19.0,93,0.00,,---,0.00,VWS V14.01,2013-01-30 12:17:00,
2013-01-30 06:22:00,25.2,23.5,29.33,NW,307,6.0,19.0,93,0.00,,---,0.00,VWS V14.01,2013-01-30 12:22:00,
2013-01-30 06:27:00,25.1,23.6,29.33,WNW,296,8.0,19.0,94,0.00,,---,0.00,VWS V14.01,2013-01-30 12:27:00,
2013-01-30 06:32:00,25.0,23.5,29.32,NW,304,15.0,18.0,94,0.00,,---,0.00,VWS V14.01,2013-01-30 12:32:00,
2013-01-30 06:37:00,24.9,23.4,29.33,WNW,300,12.0,18.0,94,0.00,,---,0.00,VWS V14.01,2013-01-30 12:37:00,
2013-01-30 06:42:00,24.9,23.7,29.33,WNW,302,14.0,18.0,95,0.00,,---,0.00,VWS V14.01,2013-01-30 12:42:00,
2013-01-30 06:47:00,24.9,23.7,29.32,WNW,302,7.0,18.0,95,0.00,,---,0.00,VWS V14.01,2013-01-30 12:47:00,
2013-01-30 06:52:00,24.8,23.6,29.32,WNW,293,6.0,18.0,95,0.00,,---,0.00,VWS V14.01,2013-01-30 12:52:00,
2013-01-30 06:57:00,24.8,23.6,29.32,NW,304,9.0,18.0,95,0.00,,---,0.00,VWS V14.01,2013-01-30 12:57:00,
2013-01-30 07:02:00,24.8,23.6,29.32,WNW,296,17.0,17.0,95,0.00,,---,0.00,VWS V14.01,2013-01-30 13:02:00,
2013-01-30 07:07:00,24.7,23.5,29.32,WNW,300,14.0,19.0,95,0.00,,---,0.00,VWS V14.01,2013-01-30 13:07:00,
2013-01-30 07:12:00,24.6,23.4,29.31,WNW,300,10.0,20.0,95,0.00,,---,0.00,VWS V14.01,2013-01-30 13:12:00,
2013-01-30 07:17:00,24.5,23.3,29.32,NW,307,7.0,20.0,95,0.00,,---,0.00,VWS V14.01,2013-01-30 13:17:00,
2013-01-30 07:22:00,24.5,23.3,29.32,WNW,293,12.0,20.0,95,0.00,,---,0.00,VWS V14.01,2013-01-30 13:22:00,
2013-01-30 07:27:00,24.5,23.3,29.33,NW,316,11.0,20.0,95,0.00,,---,0.00,VWS V14.01,2013-01-30 13:27:00,
2013-01-30 07:32:00,24.5,23.3,29.33,WNW,285,7.0,14.0,95,0.00,,---,0.00,VWS V14.01,2013-01-30 13:32:00,
2013-01-30 07:37:00,24.5,23.3,29.31,NW,304,7.0,14.0,95,0.00,,---,0.00,VWS V14.01,2013-01-30 13:37:00,
2013-01-30 07:42:00,24.4,23.2,29.31,WNW,303,11.0,15.0,95,0.00,,---,0.00,VWS V14.01,2013-01-30 13:42:00,
2013-01-30 07:47:00,24.2,23.0,29.30,NW,323,9.0,20.0,95,0.00,,---,0.00,VWS V14.01,2013-01-30 13:47:00,
2013-01-30 07:52:00,24.0,22.8,29.30,WNW,301,7.0,20.0,95,0.00,,---,0.00,VWS V14.01,2013-01-30 13:52:00,
2013-01-30 07:57:00,23.9,22.7,29.29,NW,322,5.0,22.0,95,0.00,,---,0.00,VWS V14.01,2013-01-30 13:57:00,
2013-01-30 08:02:00,23.7,22.5,29.31,NW,313,8.0,20.0,95,0.00,,---,0.00,VWS V14.01,2013-01-30 14:02:00,
2013-01-30 08:07:00,23.6,22.4,29.31,NW,314,10.0,20.0,95,0.00,,---,0.00,VWS V14.01,2013-01-30 14:07:00,
2013-01-30 08:12:00,23.4,22.2,29.31,West,281,17.0,23.0,95,0.00,,---,0.00,VWS V14.01,2013-01-30 14:12:00,
2013-01-30 08:17:00,23.3,22.1,29.31,NNW,327,18.0,23.0,95,0.00,,---,0.00,VWS V14.01,2013-01-30 14:17:00,
2013-01-30 08:22:00,23.3,22.1,29.31,NW,316,5.0,23.0,95,0.00,,---,0.00,VWS V14.01,2013-01-30 14:22:00,
2013-01-30 08:27:00,23.3,22.1,29.32,WNW,299,7.0,23.0,95,0.00,,---,0.00,VWS V14.01,2013-01-30 14:27:00,
2013-01-30 08:32:00,23.3,22.3,29.33,WNW,302,6.0,15.0,96,0.00,,---,0.00,VWS V14.01,2013-01-30 14:32:00,
2013-01-30 08:37:00,23.3,22.3,29.33,NW,317,4.0,15.0,96,0.00,,---,0.00,VWS V14.01,2013-01-30 14:37:00,
2013-01-30 08:42:00,23.3,22.3,29.32,WNW,302,4.0,15.0,96,0.00,,---,0.00,VWS V14.01,2013-01-30 14:42:00,
2013-01-30 08:47:00,23.3,22.3,29.33,NW,304,13.0,21.0,96,0.00,,---,0.00,VWS V14.01,2013-01-30 14:47:00,
2013-01-30 08:52:00,23.2,22.2,29.32,WNW,297,9.0,21.0,96,0.00,,---,0.00,VWS V14.01,2013-01-30 14:52:00,
2013-01-30 08:57:00,23.0,21.8,29.31,WNW,302,10.0,21.0,95,0.00,,---,0.00,VWS V14.01,2013-01-30 14:57:00,
2013-01-30 09:02:00,22.8,21.8,29.32,WNW,298,9.0,21.0,96,0.00,,---,0.00,VWS V14.01,2013-01-30 15:02:00,
2013-01-30 09:07:00,22.6,21.4,29.32,NNW,343,6.0,21.0,95,0.00,,---,0.00,VWS V14.01,2013-01-30 15:07:00,
2013-01-30 09:12:00,22.5,21.5,29.32,NW,307,10.0,21.0,96,0.00,,---,0.00,VWS V14.01,2013-01-30 15:12:00,
2013-01-30 09:17:00,22.5,21.3,29.31,WNW,294,14.0,21.0,95,0.00,,---,0.00,VWS V14.01,2013-01-30 15:17:00,
2013-01-30 09:22:00,22.4,21.4,29.32,NW,310,16.0,21.0,96,0.00,,---,0.00,VWS V14.01,2013-01-30 15:22:00,
2013-01-30 09:27:00,22.4,21.4,29.32,NW,306,15.0,21.0,96,0.00,,---,0.00,VWS V14.01,2013-01-30 15:27:00,
2013-01-30 09:32:00,22.4,21.4,29.31,WNW,286,13.0,19.0,96,0.00,,---,0.00,VWS V14.01,2013-01-30 15:32:00,
2013-01-30 09:37:00,22.3,21.3,29.30,NW,306,13.0,20.0,96,0.00,,---,0.00,VWS V14.01,2013-01-30 15:37:00,
2013-01-30 09:42:00,22.3,21.3,29.30,NW,309,10.0,20.0,96,0.00,,---,0.00,VWS V14.01,2013-01-30 15:42:00,
2013-01-30 09:47:00,22.3,21.3,29.30,WNW,284,15.0,20.0,96,0.00,,---,0.00,VWS V14.01,2013-01-30 15:47:00,
2013-01-30 09:52:00,22.2,21.2,29.30,NW,304,9.0,20.0,96,0.00,,---,0.00,VWS V14.01,2013-01-30 15:52:00,
2013-01-30 09:57:00,22.2,21.2,29.31,WNW,287,15.0,20.0,96,0.00,,---,0.00,VWS V14.01,2013-01-30 15:57:00,
2013-01-30 10:02:00,22.1,21.1,29.31,WNW,294,9.0,16.0,96,0.00,,---,0.00,VWS V14.01,2013-01-30 16:02:00,
2013-01-30 10:07:00,22.1,21.1,29.31,WNW,288,11.0,17.0,96,0.00,,---,0.00,VWS V14.01,2013-01-30 16:07:00,
2013-01-30 10:12:00,22.2,21.2,29.32,WNW,286,9.0,17.0,96,0.00,,---,0.00,VWS V14.01,2013-01-30 16:12:00,
2013-01-30 10:17:00,22.2,21.2,29.33,WNW,302,6.0,17.0,96,0.00,,---,0.00,VWS V14.01,2013-01-30 16:17:00,
2013-01-30 10:22:00,22.3,21.3,29.33,NW,309,9.0,17.0,96,0.00,,---,0.00,VWS V14.01,2013-01-30 16:22:00,
2013-01-30 10:27:00,22.4,21.4,29.33,West,271,3.0,17.0,96,0.00,,---,0.00,VWS V14.01,2013-01-30 16:27:00,
2013-01-30 10:32:00,22.4,21.4,29.33,WNW,288,4.0,11.0,96,0.00,,---,0.00,VWS V14.01,2013-01-30 16:32:00,
2013-01-30 10:37:00,22.3,21.3,29.33,WNW,284,7.0,14.0,96,0.00,,---,0.00,VWS V14.01,2013-01-30 16:37:00,
2013-01-30 10:42:00,22.3,21.3,29.33,NW,308,6.0,14.0,96,0.00,,---,0.00,VWS V14.01,2013-01-30 16:42:00,
2013-01-30 10:47:00,22.2,21.0,29.32,WNW,294,8.0,19.0,95,0.00,,---,0.00,VWS V14.01,2013-01-30 16:47:00,
2013-01-30 10:52:00,22.1,21.1,29.32,WNW,301,14.0,19.0,96,0.00,,---,0.00,VWS V14.01,2013-01-30 16:52:00,
2013-01-30 10:57:00,22.0,20.8,29.32,WNW,292,15.0,19.0,95,0.00,,---,0.00,VWS V14.01,2013-01-30 16:57:00,
2013-01-30 11:02:00,22.0,20.8,29.32,WNW,285,12.0,16.0,95,0.00,,---,0.00,VWS V14.01,2013-01-30 17:02:00,
2013-01-30 11:07:00,22.0,20.8,29.32,WNW,303,13.0,16.0,95,0.00,,---,0.00,VWS V14.01,2013-01-30 17:07:00,
2013-01-30 11:12:00,22.1,20.9,29.32,West,273,6.0,16.0,95,0.00,,---,0.00,VWS V14.01,2013-01-30 17:12:00,
2013-01-30 11:17:00,22.0,20.8,29.31,WNW,294,8.0,16.0,95,0.00,,---,0.00,VWS V14.01,2013-01-30 17:17:00,
2013-01-30 11:22:00,21.9,20.7,29.31,WNW,297,9.0,17.0,95,0.00,,---,0.00,VWS V14.01,2013-01-30 17:22:00,
2013-01-30 11:27:00,21.7,20.5,29.31,WNW,290,9.0,18.0,95,0.00,,---,0.00,VWS V14.01,2013-01-30 17:27:00,
2013-01-30 11:32:00,21.6,20.4,29.31,West,279,9.0,18.0,95,0.00,,---,0.00,VWS V14.01,2013-01-30 17:32:00,
2013-01-30 11:37:00,21.6,20.4,29.30,West,279,15.0,26.0,95,0.00,,---,0.00,VWS V14.01,2013-01-30 17:37:00,
2013-01-30 11:42:00,21.5,20.3,29.30,WNW,300,15.0,26.0,95,0.00,,---,0.00,VWS V14.01,2013-01-30 17:42:00,
2013-01-30 11:47:00,21.5,20.3,29.30,NW,306,18.0,26.0,95,0.00,,---,0.00,VWS V14.01,2013-01-30 17:47:00,
2013-01-30 11:52:00,21.5,20.3,29.30,WNW,290,14.0,26.0,95,0.00,,---,0.00,VWS V14.01,2013-01-30 17:52:00,
2013-01-30 11:57:00,21.6,20.4,29.30,NW,321,14.0,26.0,95,0.00,,---,0.00,VWS V14.01,2013-01-30 17:57:00,
2013-01-30 12:02:00,21.7,20.5,29.31,WNW,296,4.0,4.0,95,0.00,,---,0.00,VWS V14.01,2013-01-30 18:02:00,
2013-01-30 12:07:00,21.6,20.4,29.30,West,279,4.0,14.0,95,0.00,,---,0.00,VWS V14.01,2013-01-30 18:07:00,
2013-01-30 12:12:00,20.8,19.4,29.30,WNW,298,6.0,19.0,94,0.00,,---,0.00,VWS V14.01,2013-01-30 18:12:00,
2013-01-30 12:17:00,20.5,19.0,29.30,WNW,292,10.0,19.0,94,0.00,,---,0.00,VWS V14.01,2013-01-30 18:17:00,
2013-01-30 12:22:00,20.3,18.9,29.30,WSW,243,10.0,19.0,94,0.00,,---,0.00,VWS V14.01,2013-01-30 18:22:00,
2013-01-30 12:27:00,20.0,18.5,29.30,WNW,285,11.0,19.0,94,0.00,,---,0.00,VWS V14.01,2013-01-30 18:27:00,
2013-01-30 12:32:00,19.7,18.3,29.30,West,272,3.0,15.0,94,0.00,,---,0.00,VWS V14.01,2013-01-30 18:32:00,
2013-01-30 12:37:00,19.7,18.3,29.30,WSW,237,12.0,18.0,94,0.00,,---,0.00,VWS V14.01,2013-01-30 18:37:00,
2013-01-30 12:42:00,19.4,18.0,29.30,WNW,284,6.0,19.0,94,0.00,,---,0.00,VWS V14.01,2013-01-30 18:42:00,
2013-01-30 12:47:00,19.5,18.1,29.30,West,271,13.0,19.0,94,0.00,,---,0.00,VWS V14.01,2013-01-30 18:47:00,
2013-01-30 12:52:00,19.4,18.0,29.30,WSW,254,3.0,19.0,94,0.00,,---,0.00,VWS V14.01,2013-01-30 18:52:00,
2013-01-30 12:57:00,19.2,17.8,29.30,West,277,13.0,21.0,94,0.00,,---,0.00,VWS V14.01,2013-01-30 18:57:00,
2013-01-30 13:02:00,19.0,17.6,29.30,WNW,300,12.0,15.0,94,0.00,,---,0.00,VWS V14.01,2013-01-30 19:02:00,
2013-01-30 13:07:00,19.1,17.7,29.31,WNW,292,12.0,17.0,94,0.00,,---,0.00,VWS V14.01,2013-01-30 19:07:00,
2013-01-30 13:12:00,19.1,17.7,29.30,West,280,14.0,18.0,94,0.00,,---,0.00,VWS V14.01,2013-01-30 19:12:00,
2013-01-30 13:17:00,19.0,17.6,29.31,WNW,297,7.0,18.0,94,0.00,,---,0.00,VWS V14.01,2013-01-30 19:17:00,
2013-01-30 13:22:00,19.0,17.6,29.30,WNW,296,3.0,18.0,94,0.00,,---,0.00,VWS V14.01,2013-01-30 19:22:00,
2013-01-30 13:27:00,18.9,17.2,29.30,WNW,292,16.0,19.0,93,0.00,,---,0.00,VWS V14.01,2013-01-30 19:27:00,
2013-01-30 13:32:00,18.3,16.6,29.31,WNW,282,12.0,18.0,93,0.00,,---,0.00,VWS V14.01,2013-01-30 19:32:00,
2013-01-30 13:37:00,18.2,16.5,29.30,WNW,302,6.0,18.0,93,0.00,,---,0.00,VWS V14.01,2013-01-30 19:37:00,
2013-01-30 13:42:00,18.1,16.4,29.30,WNW,300,17.0,26.0,93,0.00,,---,0.00,VWS V14.01,2013-01-30 19:42:00,
2013-01-30 13:47:00,17.9,16.2,29.30,WNW,293,15.0,26.0,93,0.00,,---,0.00,VWS V14.01,2013-01-30 19:47:00,
2013-01-30 13:52:00,18.0,16.3,29.30,WNW,291,14.0,26.0,93,0.00,,---,0.00,VWS V14.01,2013-01-30 19:52:00,
2013-01-30 13:57:00,18.0,16.3,29.30,NW,304,9.0,26.0,93,0.00,,---,0.00,VWS V14.01,2013-01-30 19:57:00,
2013-01-30 14:02:00,18.0,16.3,29.31,WNW,283,18.0,18.0,93,0.00,,---,0.00,VWS V14.01,2013-01-30 20:02:00,
2013-01-30 14:07:00,17.8,16.1,29.31,West,270,12.0,19.0,93,0.00,,---,0.00,VWS V14.01,2013-01-30 20:07:00,
2013-01-30 14:12:00,17.7,16.0,29.31,WNW,286,18.0,22.0,93,0.00,,---,0.00,VWS V14.01,2013-01-30 20:12:00,
2013-01-30 14:17:00,17.7,16.0,29.31,SW,219,16.0,22.0,93,0.00,,---,0.00,VWS V14.01,2013-01-30 20:17:00,
2013-01-30 14:22:00,17.7,16.0,29.31,West,278,10.0,22.0,93,0.00,,---,0.00,VWS V14.01,2013-01-30 20:22:00,
2013-01-30 14:27:00,17.6,15.9,29.32,WNW,300,12.0,22.0,93,0.00,,---,0.00,VWS V14.01,2013-01-30 20:27:00,
2013-01-30 14:32:00,17.6,15.9,29.32,West,266,7.0,17.0,93,0.00,,---,0.00,VWS V14.01,2013-01-30 20:32:00,
2013-01-30 14:37:00,17.5,15.8,29.32,NW,306,9.0,24.0,93,0.00,,---,0.00,VWS V14.01,2013-01-30 20:37:00,
2013-01-30 14:42:00,17.5,15.8,29.32,West,261,7.0,24.0,93,0.00,,---,0.00,VWS V14.01,2013-01-30 20:42:00,
2013-01-30 14:47:00,17.6,15.9,29.32,West,280,9.0,24.0,93,0.00,,---,0.00,VWS V14.01,2013-01-30 20:47:00,
2013-01-30 14:52:00,17.7,16.0,29.32,West,277,10.0,24.0,93,0.00,,---,0.00,VWS V14.01,2013-01-30 20:52:00,
2013-01-30 14:57:00,17.5,15.8,29.32,NW,311,12.0,24.0,93,0.00,,---,0.00,VWS V14.01,2013-01-30 20:57:00,
2013-01-30 15:02:00,17.5,15.8,29.32,WSW,251,9.0,18.0,93,0.00,,---,0.00,VWS V14.01,2013-01-30 21:02:00,
2013-01-30 15:07:00,17.4,15.7,29.32,West,269,9.0,20.0,93,0.00,,---,0.00,VWS V14.01,2013-01-30 21:07:00,
2013-01-30 15:12:00,17.1,15.2,29.33,NW,309,10.0,20.0,92,0.00,,---,0.00,VWS V14.01,2013-01-30 21:12:00,
2013-01-30 15:17:00,17.0,15.1,29.33,NW,308,10.0,20.0,92,0.00,,---,0.00,VWS V14.01,2013-01-30 21:17:00,
2013-01-30 15:23:00,16.8,14.9,29.33,WNW,294,4.0,20.0,92,0.00,,---,0.00,VWS V14.01,2013-01-30 21:23:00,
2013-01-30 15:28:00,16.7,14.8,29.34,West,263,6.0,20.0,92,0.00,,---,0.00,VWS V14.01,2013-01-30 21:28:00,
2013-01-30 15:33:00,16.4,14.5,29.34,WNW,286,7.0,16.0,92,0.00,,---,0.00,VWS V14.01,2013-01-30 21:33:00,
2013-01-30 15:38:00,16.4,14.5,29.34,WNW,292,4.0,16.0,92,0.00,,---,0.00,VWS V14.01,2013-01-30 21:38:00,
2013-01-30 15:43:00,16.3,14.4,29.34,WNW,300,9.0,17.0,92,0.00,,---,0.00,VWS V14.01,2013-01-30 21:43:00,
2013-01-30 15:48:00,16.1,14.2,29.34,WSW,248,13.0,17.0,92,0.00,,---,0.00,VWS V14.01,2013-01-30 21:48:00,
2013-01-30 15:53:00,16.0,14.1,29.34,West,269,10.0,18.0,92,0.00,,---,0.00,VWS V14.01,2013-01-30 21:53:00,
2013-01-30 15:58:00,15.9,14.0,29.34,West,260,13.0,18.0,92,0.00,,---,0.00,VWS V14.01,2013-01-30 21:58:00,
2013-01-30 16:03:00,15.7,13.8,29.35,WNW,290,4.0,11.0,92,0.00,,---,0.00,VWS V14.01,2013-01-30 22:03:00,
2013-01-30 16:07:00,15.6,13.7,29.35,West,279,11.0,15.0,92,0.00,,---,0.00,VWS V14.01,2013-01-30 22:07:00,
2013-01-30 16:12:00,15.4,13.5,29.35,SW,227,14.0,20.0,92,0.00,,---,0.00,VWS V14.01,2013-01-30 22:12:00,
2013-01-30 16:17:00,15.3,13.4,29.35,West,259,18.0,20.0,92,0.00,,---,0.00,VWS V14.01,2013-01-30 22:17:00,
2013-01-30 16:23:00,15.2,13.3,29.35,WSW,250,12.0,20.0,92,0.00,,---,0.00,VWS V14.01,2013-01-30 22:23:00,
2013-01-30 16:28:00,15.1,13.2,29.35,West,279,12.0,20.0,92,0.00,,---,0.00,VWS V14.01,2013-01-30 22:28:00,
2013-01-30 16:33:00,15.0,13.1,29.35,WNW,290,12.0,16.0,92,0.00,,---,0.00,VWS V14.01,2013-01-30 22:33:00,
2013-01-30 16:38:00,14.9,13.0,29.35,WSW,250,11.0,16.0,92,0.00,,---,0.00,VWS V14.01,2013-01-30 22:38:00,
2013-01-30 16:42:00,14.9,13.0,29.36,West,281,8.0,16.0,92,0.00,,---,0.00,VWS V14.01,2013-01-30 22:42:00,
2013-01-30 16:47:00,14.9,13.0,29.36,WNW,288,14.0,16.0,92,0.00,,---,0.00,VWS V14.01,2013-01-30 22:47:00,
2013-01-30 16:52:00,14.8,12.9,29.35,SW,234,4.0,16.0,92,0.00,,---,0.00,VWS V14.01,2013-01-30 22:52:00,
2013-01-30 16:57:00,14.6,12.7,29.36,WSW,254,3.0,16.0,92,0.00,,---,0.00,VWS V14.01,2013-01-30 22:57:00,
2013-01-30 17:02:00,14.4,12.5,29.36,West,270,11.0,14.0,92,0.00,,---,0.00,VWS V14.01,2013-01-30 23:02:00,
2013-01-30 17:07:00,14.2,12.3,29.36,West,262,5.0,17.0,92,0.00,,---,0.00,VWS V14.01,2013-01-30 23:07:00,
2013-01-30 17:12:00,14.1,12.2,29.37,West,275,7.0,17.0,92,0.00,,---,0.00,VWS V14.01,2013-01-30 23:12:00,
2013-01-30 17:17:00,13.9,12.0,29.37,West,277,5.0,17.0,92,0.00,,---,0.00,VWS V14.01,2013-01-30 23:17:00,
2013-01-30 17:22:00,13.8,11.9,29.37,West,272,13.0,17.0,92,0.00,,---,0.00,VWS V14.01,2013-01-30 23:22:00,
2013-01-30 17:27:00,13.7,11.8,29.37,West,268,10.0,20.0,92,0.00,,---,0.00,VWS V14.01,2013-01-30 23:27:00,
2013-01-30 17:32:00,13.7,11.8,29.37,West,266,6.0,14.0,92,0.00,,---,0.00,VWS V14.01,2013-01-30 23:32:00,
2013-01-30 17:37:00,13.6,11.7,29.38,WSW,254,4.0,14.0,92,0.00,,---,0.00,VWS V14.01,2013-01-30 23:37:00,
2013-01-30 17:43:00,13.6,11.7,29.38,SW,232,5.0,17.0,92,0.00,,---,0.00,VWS V14.01,2013-01-30 23:43:00,
2013-01-30 17:48:00,13.5,11.6,29.38,West,264,10.0,17.0,92,0.00,,---,0.00,VWS V14.01,2013-01-30 23:48:00,
2013-01-30 17:53:00,13.4,11.5,29.38,West,261,3.0,17.0,92,0.00,,---,0.00,VWS V14.01,2013-01-30 23:53:00,
2013-01-30 17:58:00,13.4,11.5,29.39,West,281,2.0,17.0,92,0.00,,---,0.00,VWS V14.01,2013-01-30 23:58:00,
2013-01-30 18:03:00,13.3,11.4,29.39,West,270,9.0,10.0,92,0.00,,---,0.00,VWS V14.01,2013-01-31 00:03:00,
2013-01-30 18:08:00,13.3,11.2,29.39,West,270,10.0,16.0,91,0.00,,---,0.00,VWS V14.01,2013-01-31 00:08:00,
2013-01-30 18:13:00,13.3,11.2,29.39,WNW,290,7.0,16.0,91,0.00,,---,0.00,VWS V14.01,2013-01-31 00:13:00,
2013-01-30 18:18:00,13.4,11.3,29.39,West,273,10.0,16.0,91,0.00,,---,0.00,VWS V14.01,2013-01-31 00:18:00,
2013-01-30 18:23:00,13.4,11.3,29.39,WNW,286,12.0,16.0,91,0.00,,---,0.00,VWS V14.01,2013-01-31 00:23:00,
2013-01-30 18:28:00,13.5,11.4,29.39,West,274,4.0,16.0,91,0.00,,---,0.00,VWS V14.01,2013-01-31 00:28:00,
2013-01-30 18:33:00,13.5,11.4,29.40,West,264,4.0,12.0,91,0.00,,---,0.00,VWS V14.01,2013-01-31 00:33:00,
2013-01-30 18:38:00,13.5,11.4,29.40,West,259,3.0,12.0,91,0.00,,---,0.00,VWS V14.01,2013-01-31 00:38:00,
2013-01-30 18:43:00,13.5,11.4,29.40,WNW,292,3.0,14.0,91,0.00,,---,0.00,VWS V14.01,2013-01-31 00:43:00,
2013-01-30 18:47:00,13.5,11.4,29.40,West,281,5.0,15.0,91,0.00,,---,0.00,VWS V14.01,2013-01-31 00:47:00,
2013-01-30 18:53:00,13.4,11.0,29.40,WNW,285,5.0,16.0,90,0.00,,---,0.00,VWS V14.01,2013-01-31 00:53:00,
2013-01-30 18:57:00,13.4,11.0,29.40,WSW,253,4.0,16.0,90,0.00,,---,0.00,VWS V14.01,2013-01-31 00:57:00,
2013-01-30 19:02:00,13.4,11.0,29.40,West,279,11.0,17.0,90,0.00,,---,0.00,VWS V14.01,2013-01-31 01:02:00,
2013-01-30 19:07:00,13.3,10.9,29.40,West,259,5.0,17.0,90,0.00,,---,0.00,VWS V14.01,2013-01-31 01:07:00,
2013-01-30 19:12:00,13.2,10.8,29.40,WSW,257,7.0,17.0,90,0.00,,---,0.00,VWS V14.01,2013-01-31 01:12:00,
2013-01-30 19:17:00,13.1,10.7,29.40,West,267,6.0,18.0,90,0.00,,---,0.00,VWS V14.01,2013-01-31 01:17:00,
2013-01-30 19:22:00,13.1,10.7,29.40,WNW,298,4.0,18.0,90,0.00,,---,0.00,VWS V14.01,2013-01-31 01:22:00,
2013-01-30 19:27:00,13.0,10.6,29.41,West,276,9.0,18.0,90,0.00,,---,0.00,VWS V14.01,2013-01-31 01:27:00,
2013-01-30 19:32:00,13.0,10.6,29.41,West,261,6.0,13.0,90,0.00,,---,0.00,VWS V14.01,2013-01-31 01:32:00,
2013-01-30 19:37:00,12.9,10.5,29.41,WNW,300,15.0,16.0,90,0.00,,---,0.00,VWS V14.01,2013-01-31 01:37:00,
2013-01-30 19:42:00,12.9,10.5,29.41,WNW,294,10.0,16.0,90,0.00,,---,0.00,VWS V14.01,2013-01-31 01:42:00,
2013-01-30 19:47:00,12.9,10.5,29.41,West,264,6.0,16.0,90,0.00,,---,0.00,VWS V14.01,2013-01-31 01:47:00,
2013-01-30 19:52:00,12.8,10.4,29.41,West,269,3.0,16.0,90,0.00,,---,0.00,VWS V14.01,2013-01-31 01:52:00,
2013-01-30 19:57:00,12.7,10.3,29.41,West,259,7.0,16.0,90,0.00,,---,0.00,VWS V14.01,2013-01-31 01:57:00,
2013-01-30 20:02:00,12.7,10.1,29.41,West,262,4.0,13.0,89,0.00,,---,0.00,VWS V14.01,2013-01-31 02:02:00,
2013-01-30 20:07:00,12.6,10.0,29.41,WSW,258,3.0,13.0,89,0.00,,---,0.00,VWS V14.01,2013-01-31 02:07:00,
2013-01-30 20:12:00,12.6,10.0,29.42,West,277,2.0,16.0,89,0.00,,---,0.00,VWS V14.01,2013-01-31 02:12:00,
2013-01-30 20:17:00,12.5,9.9,29.42,West,276,11.0,16.0,89,0.00,,---,0.00,VWS V14.01,2013-01-31 02:17:00,
2013-01-30 20:22:00,12.5,9.9,29.42,NW,309,9.0,16.0,89,0.00,,---,0.00,VWS V14.01,2013-01-31 02:22:00,
2013-01-30 20:27:00,12.4,9.5,29.42,West,274,4.0,16.0,88,0.00,,---,0.00,VWS V14.01,2013-01-31 02:27:00,
2013-01-30 20:32:00,12.2,9.1,29.42,West,259,9.0,17.0,87,0.00,,---,0.00,VWS V14.01,2013-01-31 02:32:00,
2013-01-30 20:37:00,12.0,8.9,29.43,WNW,282,11.0,17.0,87,0.00,,---,0.00,VWS V14.01,2013-01-31 02:37:00,
2013-01-30 20:42:00,11.8,8.7,29.42,WSW,246,6.0,17.0,87,0.00,,---,0.00,VWS V14.01,2013-01-31 02:42:00,
2013-01-30 20:47:00,11.6,8.5,29.42,West,281,7.0,17.0,87,0.00,,---,0.00,VWS V14.01,2013-01-31 02:47:00,
2013-01-30 20:52:00,11.5,8.1,29.42,NW,323,6.0,17.0,86,0.00,,---,0.00,VWS V14.01,2013-01-31 02:52:00,
2013-01-30 20:57:00,11.3,7.9,29.43,West,264,10.0,17.0,86,0.00,,---,0.00,VWS V14.01,2013-01-31 02:57:00,
2013-01-30 21:02:00,11.3,7.9,29.43,SSW,200,5.0,11.0,86,0.00,,---,0.00,VWS V14.01,2013-01-31 03:02:00,
2013-01-30 21:07:00,11.3,7.9,29.43,West,280,5.0,15.0,86,0.00,,---,0.00,VWS V14.01,2013-01-31 03:07:00,
2013-01-30 21:12:00,11.2,7.8,29.43,WNW,286,15.0,15.0,86,0.00,,---,0.00,VWS V14.01,2013-01-31 03:12:00,
2013-01-30 21:17:00,11.2,7.8,29.43,WNW,290,10.0,17.0,86,0.00,,---,0.00,VWS V14.01,2013-01-31 03:17:00,
2013-01-30 21:22:00,11.2,7.8,29.43,West,262,2.0,17.0,86,0.00,,---,0.00,VWS V14.01,2013-01-31 03:22:00,
2013-01-30 21:27:00,11.0,7.4,29.43,WSW,247,5.0,17.0,85,0.00,,---,0.00,VWS V14.01,2013-01-31 03:27:00,
2013-01-30 21:32:00,11.0,7.4,29.44,WSW,246,2.0,13.0,85,0.00,,---,0.00,VWS V14.01,2013-01-31 03:32:00,
2013-01-30 21:37:00,11.0,7.4,29.44,WSW,255,2.0,20.0,85,0.00,,---,0.00,VWS V14.01,2013-01-31 03:37:00,
2013-01-30 21:42:00,10.9,7.0,29.44,SW,219,3.0,20.0,84,0.00,,---,0.00,VWS V14.01,2013-01-31 03:42:00,
2013-01-30 21:47:00,10.9,7.0,29.44,WSW,247,3.0,20.0,84,0.00,,---,0.00,VWS V14.01,2013-01-31 03:47:00,
2013-01-30 21:52:00,10.9,7.0,29.44,WSW,254,9.0,20.0,84,0.00,,---,0.00,VWS V14.01,2013-01-31 03:52:00,
2013-01-30 21:57:00,10.8,7.2,29.44,West,271,4.0,20.0,85,0.00,,---,0.00,VWS V14.01,2013-01-31 03:57:00,
2013-01-30 22:02:00,10.8,6.9,29.44,WNW,285,10.0,15.0,84,0.00,,---,0.00,VWS V14.01,2013-01-31 04:02:00,
2013-01-30 22:07:00,10.8,6.9,29.44,WNW,287,6.0,16.0,84,0.00,,---,0.00,VWS V14.01,2013-01-31 04:07:00,
2013-01-30 22:12:00,10.8,6.9,29.45,West,280,5.0,16.0,84,0.00,,---,0.00,VWS V14.01,2013-01-31 04:12:00,
2013-01-30 22:17:00,10.8,6.7,29.45,WNW,285,6.0,17.0,83,0.00,,---,0.00,VWS V14.01,2013-01-31 04:17:00,
2013-01-30 22:22:00,10.8,6.9,29.45,WSW,252,7.0,17.0,84,0.00,,---,0.00,VWS V14.01,2013-01-31 04:22:00,
2013-01-30 22:27:00,10.7,6.6,29.45,WNW,285,3.0,17.0,83,0.00,,---,0.00,VWS V14.01,2013-01-31 04:27:00,
2013-01-30 22:32:00,10.6,6.2,29.45,WNW,296,6.0,21.0,82,0.00,,---,0.00,VWS V14.01,2013-01-31 04:32:00,
2013-01-30 22:37:00,10.6,6.2,29.46,SW,229,10.0,21.0,82,0.00,,---,0.00,VWS V14.01,2013-01-31 04:37:00,
2013-01-30 22:42:00,10.5,5.8,29.46,WSW,239,4.0,21.0,81,0.00,,---,0.00,VWS V14.01,2013-01-31 04:42:00,
2013-01-30 22:47:00,10.4,6.0,29.46,WSW,240,10.0,21.0,82,0.00,,---,0.00,VWS V14.01,2013-01-31 04:47:00,
2013-01-30 22:52:00,10.3,5.9,29.46,WNW,284,12.0,21.0,82,0.00,,---,0.00,VWS V14.01,2013-01-31 04:52:00,
2013-01-30 22:57:00,10.2,5.8,29.47,WNW,293,11.0,21.0,82,0.00,,---,0.00,VWS V14.01,2013-01-31 04:57:00,
2013-01-30 23:00:00,10.1,5.7,29.47,WSW,253,2.0,21.0,82,0.00,,---,0.00,VWS V14.01,2013-01-31 05:00:00,
2013-01-30 23:01:00,10.2,5.8,29.47,SW,214,14.0,14.0,82,0.00,,---,0.00,VWS V14.01,2013-01-31 05:01:00,
2013-01-30 23:02:00,10.1,5.4,29.47,WSW,255,4.0,14.0,81,0.00,,---,0.00,VWS V14.01,2013-01-31 05:02:00,
2013-01-30 23:07:00,10.1,5.4,29.47,West,279,3.0,15.0,81,0.00,,---,0.00,VWS V14.01,2013-01-31 05:07:00,
2013-01-30 23:12:00,10.1,5.2,29.47,WNW,288,9.0,17.0,80,0.00,,---,0.00,VWS V14.01,2013-01-31 05:12:00,
2013-01-30 23:17:00,10.1,5.2,29.47,West,274,10.0,17.0,80,0.00,,---,0.00,VWS V14.01,2013-01-31 05:17:00,
2013-01-30 23:22:00,10.1,5.4,29.47,SW,219,4.0,17.0,81,0.00,,---,0.00,VWS V14.01,2013-01-31 05:22:00,
2013-01-30 23:27:00,9.9,5.2,29.47,West,268,11.0,17.0,81,0.00,,---,0.00,VWS V14.01,2013-01-31 05:27:00,
2013-01-30 23:32:00,9.9,5.0,29.48,WSW,244,9.0,17.0,80,0.00,,---,0.00,VWS V14.01,2013-01-31 05:32:00,
2013-01-30 23:37:00,9.9,5.2,29.48,West,274,7.0,17.0,81,0.00,,---,0.00,VWS V14.01,2013-01-31 05:37:00,
2013-01-30 23:42:00,9.9,5.2,29.48,West,271,9.0,17.0,81,0.00,,---,0.00,VWS V14.01,2013-01-31 05:42:00,
2013-01-30 23:47:00,9.6,5.5,29.48,SW,230,7.0,17.0,83,0.00,,---,0.00,VWS V14.01,2013-01-31 05:47:00,
2013-01-30 23:52:00,9.5,5.7,29.49,WSW,237,1.0,17.0,84,0.00,,---,0.00,VWS V14.01,2013-01-31 05:52:00,
2013-01-30 23:57:00,9.4,5.6,29.49,SW,236,7.0,17.0,84,0.00,,---,0.00,VWS V14.01,2013-01-31 05:57:00,